| time (UTC) | temp C | wind direction | speed KPH | gust KPH | rain 1hr cm | rain 24hr cm | rain mn cm | humidity % | barometer mb |
| 20260505035513 | 20 | 0 | 0.0 | 4.8 | 0.00 | 0.00 | 0.00 | 65 | 1009.8 |
| 20260505035012 | 20 | 0 | 0.0 | 4.8 | 0.00 | 0.00 | 0.00 | 65 | 1009.8 |
| 20260505034529 | 20 | 0 | 0.0 | 3.2 | 0.00 | 0.00 | 0.00 | 65 | 1009.7 |
| 20260505034009 | 20 | 0 | 0.0 | 3.2 | 0.00 | 0.00 | 0.00 | 65 | 1009.6 |
| 20260505033513 | 21 | 78 | 0.0 | 1.6 | 0.00 | 0.00 | 0.00 | 64 | 1009.5 |
| 20260505033038 | 21 | 0 | 0.0 | 3.2 | 0.00 | 0.00 | 0.00 | 63 | 1009.5 |
| 20260505032510 | 21 | 0 | 0.0 | 3.2 | 0.00 | 0.00 | 0.00 | 62 | 1009.4 |
| 20260505032011 | 21 | 78 | 0.0 | 1.6 | 0.00 | 0.00 | 0.00 | 61 | 1009.4 |
| 20260505031539 | 21 | 0 | 0.0 | 3.2 | 0.00 | 0.00 | 0.00 | 61 | 1009.3 |
| 20260505031015 | 22 | 0 | 0.0 | 3.2 | 0.00 | 0.00 | 0.00 | 59 | 1009.2 |
| 20260505030511 | 22 | 78 | 0.0 | 3.2 | 0.00 | 0.00 | 0.00 | 58 | 1009.1 |
| 20260505030032 | 22 | 0 | 0.0 | 3.2 | 0.00 | 0.00 | 0.00 | 57 | 1009.1 |
| 20260505025510 | 22 | 0 | 0.0 | 1.6 | 0.00 | 0.00 | 0.00 | 56 | 1009.1 |
| 20260505025009 | 23 | 0 | 0.0 | 1.6 | 0.00 | 0.00 | 0.00 | 54 | 1009.1 |
| 20260505024545 | 23 | 0 | 0.0 | 1.6 | 0.00 | 0.00 | 0.00 | 53 | 1009.0 |
| 20260505024012 | 23 | 0 | 0.0 | 1.6 | 0.00 | 0.00 | 0.00 | 51 | 1009.1 |
| 20260505023509 | 23 | 0 | 0.0 | 1.6 | 0.00 | 0.00 | 0.00 | 49 | 1009.0 |
| 20260505023039 | 23 | 0 | 0.0 | 1.6 | 0.00 | 0.00 | 0.00 | 49 | 1009.1 |
| 20260505022511 | 23 | 0 | 0.0 | 1.6 | 0.00 | 0.00 | 0.00 | 48 | 1008.9 |
| 20260505022011 | 23 | 0 | 0.0 | 1.6 | 0.00 | 0.00 | 0.00 | 47 | 1009.0 |
| 20260505021532 | 23 | 0 | 0.0 | 1.6 | 0.00 | 0.00 | 0.00 | 47 | 1009.0 |
| 20260505021014 | 24 | 0 | 0.0 | 1.6 | 0.00 | 0.00 | 0.00 | 46 | 1009.0 |
| 20260505020513 | 24 | 0 | 0.0 | 1.6 | 0.00 | 0.00 | 0.00 | 45 | 1008.9 |
| 20260505020030 | 24 | 0 | 0.0 | 1.6 | 0.00 | 0.00 | 0.00 | 45 | 1009.0 |
| 20260505015512 | 24 | 0 | 0.0 | 3.2 | 0.00 | 0.00 | 0.00 | 44 | 1009.0 |
| 20260505015017 | 24 | 0 | 0.0 | 3.2 | 0.00 | 0.00 | 0.00 | 43 | 1009.1 |
| 20260505014542 | 25 | 0 | 0.0 | 6.4 | 0.00 | 0.00 | 0.00 | 43 | 1009.0 |
| 20260505014011 | 25 | 0 | 0.0 | 8.0 | 0.00 | 0.00 | 0.00 | 43 | 1009.0 |
| 20260505013510 | 25 | 0 | 0.0 | 8.0 | 0.00 | 0.00 | 0.00 | 42 | 1009.0 |
| 20260505013032 | 25 | 79 | 1.6 | 8.0 | 0.00 | 0.00 | 0.00 | 42 | 1009.0 |
| 20260505012511 | 25 | 0 | 0.0 | 4.8 | 0.00 | 0.00 | 0.00 | 43 | 1009.0 |
| 20260505012011 | 25 | 0 | 1.6 | 4.8 | 0.00 | 0.00 | 0.00 | 43 | 1008.9 |
| 20260505011530 | 25 | 86 | 0.0 | 3.2 | 0.00 | 0.00 | 0.00 | 42 | 1009.0 |
| 20260505011011 | 25 | 0 | 0.0 | 4.8 | 0.00 | 0.00 | 0.00 | 42 | 1009.0 |
| 20260505010510 | 25 | 0 | 1.6 | 6.4 | 0.00 | 0.00 | 0.00 | 42 | 1009.1 |
| 20260505010029 | 25 | 0 | 0.0 | 6.4 | 0.00 | 0.00 | 0.00 | 40 | 1009.1 |
| 20260505005511 | 25 | 0 | 0.0 | 6.4 | 0.00 | 0.00 | 0.00 | 41 | 1009.2 |
| 20260505005010 | 25 | 88 | 0.0 | 6.4 | 0.00 | 0.00 | 0.00 | 41 | 1009.1 |
| 20260505004531 | 25 | 88 | 0.0 | 9.7 | 0.00 | 0.00 | 0.00 | 41 | 1009.1 |
| 20260505004011 | 25 | 0 | 0.0 | 9.7 | 0.00 | 0.00 | 0.00 | 40 | 1009.1 |
| 20260505003510 | 25 | 110 | 1.6 | 4.8 | 0.00 | 0.00 | 0.00 | 39 | 1009.1 |
| 20260505003032 | 25 | 111 | 0.0 | 4.8 | 0.00 | 0.00 | 0.00 | 39 | 1009.1 |
| 20260505002510 | 25 | 111 | 1.6 | 9.7 | 0.00 | 0.00 | 0.00 | 38 | 1009.1 |
| 20260505002010 | 25 | 0 | 0.0 | 9.7 | 0.00 | 0.00 | 0.00 | 40 | 1009.2 |
| 20260505001534 | 25 | 0 | 0.0 | 11.3 | 0.00 | 0.00 | 0.00 | 38 | 1009.2 |
| 20260505001011 | 25 | 111 | 0.0 | 11.3 | 0.00 | 0.00 | 0.00 | 39 | 1009.2 |
| 20260505000511 | 25 | 115 | 1.6 | 6.4 | 0.00 | 0.00 | 0.00 | 39 | 1009.2 |
| 20260505000029 | 25 | 115 | 1.6 | 6.4 | 0.00 | 0.00 | 0.00 | 38 | 1009.1 |
| 20260504235511 | 25 | 111 | 3.2 | 8.0 | 0.00 | 0.00 | 0.00 | 37 | 1009.2 |
| 20260504235010 | 25 | 92 | 1.6 | 8.0 | 0.00 | 0.00 | 0.00 | 37 | 1009.2 |
| 20260504234530 | 25 | 38 | 0.0 | 8.0 | 0.00 | 0.00 | 0.00 | 40 | 1009.3 |
| 20260504234013 | 25 | 40 | 1.6 | 8.0 | 0.00 | 0.00 | 0.00 | 38 | 1009.3 |
| 20260504233510 | 25 | 38 | 1.6 | 8.0 | 0.00 | 0.00 | 0.00 | 37 | 1009.2 |
| 20260504233030 | 25 | 25 | 0.0 | 6.4 | 0.00 | 0.00 | 0.00 | 40 | 1009.3 |
| 20260504232513 | 25 | 352 | 1.6 | 6.4 | 0.00 | 0.00 | 0.00 | 39 | 1009.3 |
| 20260504232015 | 25 | 5 | 0.0 | 14.5 | 0.00 | 0.00 | 0.00 | 40 | 1009.3 |
| 20260504231532 | 25 | 9 | 3.2 | 14.5 | 0.00 | 0.00 | 0.00 | 39 | 1009.3 |
| 20260504231011 | 25 | 43 | 0.0 | 6.4 | 0.00 | 0.00 | 0.00 | 41 | 1009.3 |
| 20260504230512 | 25 | 43 | 1.6 | 11.3 | 0.00 | 0.00 | 0.00 | 40 | 1009.3 |
| 20260504230030 | 25 | 42 | 3.2 | 11.3 | 0.00 | 0.00 | 0.00 | 41 | 1009.3 |
| 20260504225512 | 25 | 65 | 3.2 | 8.0 | 0.00 | 0.00 | 0.00 | 40 | 1009.3 |
| 20260504225013 | 25 | 59 | 0.0 | 6.4 | 0.00 | 0.00 | 0.00 | 40 | 1009.4 |
| 20260504224536 | 25 | 57 | 3.2 | 6.4 | 0.00 | 0.00 | 0.00 | 41 | 1009.5 |
| 20260504224010 | 25 | 55 | 3.2 | 8.0 | 0.00 | 0.00 | 0.00 | 41 | 1009.5 |
| 20260504223515 | 26 | 55 | 3.2 | 8.0 | 0.00 | 0.00 | 0.00 | 40 | 1009.6 |
| 20260504223028 | 26 | 63 | 3.2 | 8.0 | 0.00 | 0.00 | 0.00 | 40 | 1009.6 |
| 20260504222509 | 26 | 76 | 1.6 | 8.0 | 0.00 | 0.00 | 0.00 | 40 | 1009.8 |
| 20260504222015 | 26 | 69 | 3.2 | 8.0 | 0.00 | 0.00 | 0.00 | 40 | 1009.9 |
| 20260504221532 | 26 | 74 | 0.0 | 6.4 | 0.00 | 0.00 | 0.00 | 40 | 1009.9 |
| 20260504221009 | 26 | 0 | 1.6 | 6.4 | 0.00 | 0.00 | 0.00 | 39 | 1009.9 |
| 20260504220517 | 26 | 69 | 1.6 | 6.4 | 0.00 | 0.00 | 0.00 | 39 | 1010.0 |
| 20260504220030 | 26 | 77 | 1.6 | 6.4 | 0.00 | 0.00 | 0.00 | 39 | 1010.1 |
| 20260504215509 | 26 | 76 | 1.6 | 6.4 | 0.00 | 0.00 | 0.00 | 38 | 1010.1 |
| 20260504215012 | 26 | 0 | 1.6 | 4.8 | 0.00 | 0.00 | 0.00 | 39 | 1010.2 |
| 20260504214530 | 26 | 75 | 1.6 | 6.4 | 0.00 | 0.00 | 0.00 | 39 | 1010.2 |
| 20260504214008 | 26 | 75 | 0.0 | 6.4 | 0.00 | 0.00 | 0.00 | 39 | 1010.2 |
| 20260504213515 | 26 | 65 | 1.6 | 6.4 | 0.00 | 0.00 | 0.00 | 37 | 1010.1 |
| 20260504213028 | 26 | 72 | 1.6 | 6.4 | 0.00 | 0.00 | 0.00 | 38 | 1010.2 |
| 20260504212515 | 26 | 71 | 1.6 | 6.4 | 0.00 | 0.00 | 0.00 | 39 | 1010.2 |
| 20260504212015 | 26 | 65 | 1.6 | 6.4 | 0.00 | 0.00 | 0.00 | 37 | 1010.2 |
| 20260504211533 | 26 | 71 | 1.6 | 6.4 | 0.00 | 0.00 | 0.00 | 38 | 1010.2 |
| 20260504211008 | 26 | 70 | 1.6 | 6.4 | 0.00 | 0.00 | 0.00 | 37 | 1010.2 |
| 20260504210513 | 26 | 74 | 0.0 | 11.3 | 0.00 | 0.00 | 0.00 | 39 | 1010.3 |
| 20260504210037 | 25 | 0 | 1.6 | 11.3 | 0.00 | 0.00 | 0.00 | 39 | 1010.3 |
| 20260504205510 | 25 | 138 | 3.2 | 11.3 | 0.00 | 0.00 | 0.00 | 37 | 1010.4 |
| 20260504205013 | 25 | 155 | 1.6 | 8.0 | 0.00 | 0.00 | 0.00 | 39 | 1010.5 |
| 20260504204532 | 25 | 0 | 3.2 | 9.7 | 0.00 | 0.00 | 0.00 | 42 | 1010.5 |
| 20260504204014 | 25 | 197 | 1.6 | 9.7 | 0.00 | 0.00 | 0.00 | 42 | 1010.5 |
| 20260504203513 | 25 | 189 | 3.2 | 9.7 | 0.00 | 0.00 | 0.00 | 41 | 1010.4 |
| 20260504203031 | 25 | 0 | 3.2 | 6.4 | 0.00 | 0.00 | 0.00 | 40 | 1010.4 |
| 20260504202510 | 25 | 0 | 1.6 | 9.7 | 0.00 | 0.00 | 0.00 | 41 | 1010.4 |
| 20260504202013 | 25 | 214 | 1.6 | 9.7 | 0.00 | 0.00 | 0.00 | 41 | 1010.4 |
| 20260504201530 | 25 | 213 | 3.2 | 11.3 | 0.00 | 0.00 | 0.00 | 41 | 1010.4 |
| 20260504201010 | 25 | 214 | 3.2 | 11.3 | 0.00 | 0.00 | 0.00 | 40 | 1010.4 |
| 20260504200511 | 25 | 206 | 1.6 | 9.7 | 0.00 | 0.00 | 0.00 | 43 | 1010.4 |
| 20260504200030 | 25 | 106 | 1.6 | 9.7 | 0.00 | 0.00 | 0.00 | 40 | 1010.4 |
| 20260504195509 | 25 | 107 | 3.2 | 9.7 | 0.00 | 0.00 | 0.00 | 41 | 1010.4 |
| 20260504195014 | 25 | 113 | 1.6 | 9.7 | 0.00 | 0.00 | 0.00 | 44 | 1010.3 |
| 20260504194528 | 24 | 114 | 1.6 | 6.4 | 0.00 | 0.00 | 0.00 | 43 | 1010.4 |
| 20260504194011 | 24 | 114 | 0.0 | 9.7 | 0.00 | 0.00 | 0.00 | 45 | 1010.5 |
| 20260504193511 | 24 | 114 | 3.2 | 9.7 | 0.00 | 0.00 | 0.00 | 43 | 1010.7 |
| 20260504193028 | 24 | 111 | 1.6 | 9.7 | 0.00 | 0.00 | 0.00 | 43 | 1010.7 |
| 20260504192509 | 24 | 114 | 1.6 | 9.7 | 0.00 | 0.00 | 0.00 | 43 | 1010.8 |
| 20260504192014 | 24 | 67 | 1.6 | 6.4 | 0.00 | 0.00 | 0.00 | 45 | 1010.8 |
| 20260504191531 | 24 | 67 | 1.6 | 6.4 | 0.00 | 0.00 | 0.00 | 46 | 1010.8 |
| 20260504191011 | 24 | 67 | 0.0 | 6.4 | 0.00 | 0.00 | 0.00 | 45 | 1010.8 |
| 20260504190513 | 23 | 0 | 3.2 | 6.4 | 0.00 | 0.00 | 0.00 | 44 | 1010.9 |
| 20260504190030 | 23 | 67 | 3.2 | 6.4 | 0.00 | 0.00 | 0.00 | 43 | 1010.9 |
| 20260504185508 | 23 | 69 | 0.0 | 6.4 | 0.00 | 0.00 | 0.00 | 46 | 1011.0 |
| 20260504185012 | 23 | 69 | 1.6 | 6.4 | 0.00 | 0.00 | 0.00 | 45 | 1010.9 |
| 20260504184530 | 23 | 69 | 4.8 | 6.4 | 0.00 | 0.00 | 0.00 | 44 | 1011.0 |
| 20260504184009 | 23 | 83 | 3.2 | 6.4 | 0.00 | 0.00 | 0.00 | 45 | 1010.9 |
| 20260504183514 | 23 | 42 | 1.6 | 9.7 | 0.00 | 0.00 | 0.00 | 46 | 1010.9 |
| 20260504183030 | 23 | 45 | 1.6 | 9.7 | 0.00 | 0.00 | 0.00 | 48 | 1011.0 |
| 20260504182511 | 23 | 44 | 3.2 | 9.7 | 0.00 | 0.00 | 0.00 | 46 | 1011.0 |
| 20260504182016 | 23 | 178 | 1.6 | 6.4 | 0.00 | 0.00 | 0.00 | 48 | 1011.0 |
| 20260504181529 | 23 | 171 | 1.6 | 8.0 | 0.00 | 0.00 | 0.00 | 48 | 1011.0 |
| 20260504181011 | 23 | 171 | 3.2 | 8.0 | 0.00 | 0.00 | 0.00 | 48 | 1011.1 |
| 20260504180514 | 22 | 0 | 1.6 | 9.7 | 0.00 | 0.00 | 0.00 | 49 | 1011.0 |
| 20260504180032 | 22 | 174 | 1.6 | 9.7 | 0.00 | 0.00 | 0.00 | 49 | 1011.0 |
| 20260504175511 | 22 | 176 | 0.0 | 4.8 | 0.00 | 0.00 | 0.00 | 50 | 1011.0 |
| 20260504175011 | 22 | 0 | 1.6 | 4.8 | 0.00 | 0.00 | 0.00 | 49 | 1011.0 |
| 20260504174530 | 22 | 178 | 1.6 | 9.7 | 0.00 | 0.00 | 0.00 | 53 | 1011.0 |
| 20260504174007 | 21 | 178 | 1.6 | 9.7 | 0.00 | 0.00 | 0.00 | 54 | 1010.9 |
| 20260504173509 | 21 | 0 | 0.0 | 6.4 | 0.00 | 0.00 | 0.00 | 54 | 1010.9 |
| 20260504173029 | 21 | 213 | 0.0 | 6.4 | 0.00 | 0.00 | 0.00 | 54 | 1010.9 |
| 20260504172509 | 21 | 0 | 1.6 | 6.4 | 0.00 | 0.00 | 0.00 | 55 | 1010.9 |
| 20260504172016 | 21 | 215 | 1.6 | 6.4 | 0.00 | 0.00 | 0.00 | 54 | 1010.9 |
| 20260504171530 | 20 | 215 | 1.6 | 6.4 | 0.00 | 0.00 | 0.00 | 55 | 1011.0 |
| 20260504171011 | 20 | 213 | 1.6 | 4.8 | 0.00 | 0.00 | 0.00 | 57 | 1010.9 |
| 20260504170517 | 20 | 213 | 1.6 | 6.4 | 0.00 | 0.00 | 0.00 | 59 | 1010.9 |
| 20260504151009 | 13 | 0 | 0.0 | 3.2 | 0.00 | 0.00 | 0.00 | 83 | 1010.3 |
| 20260504150511 | 13 | 0 | 0.0 | 3.2 | 0.00 | 0.00 | 0.00 | 84 | 1010.3 |
| 20260504141012 | 10 | 0 | 0.0 | 0.0 | 0.00 | 0.00 | 0.00 | 88 | 1010.1 |
| 20260504140510 | 10 | 0 | 0.0 | 0.0 | 0.00 | 0.00 | 0.00 | 88 | 1010.1 |
| 20260504130513 | 10 | 0 | 0.0 | 0.0 | 0.00 | 0.00 | 0.00 | 87 | 1009.6 |
| 20260504110507 | 11 | 0 | 0.0 | 0.0 | 0.00 | 0.00 | 0.00 | 85 | 1009.5 |
| 20260504100512 | 11 | 0 | 0.0 | 0.0 | 0.00 | 0.00 | 0.00 | 85 | 1009.2 |
| 20260504081534 | 12 | 0 | 0.0 | 0.0 | 0.00 | 0.00 | 0.00 | 82 | 1009.2 |
| 20260504081010 | 13 | 0 | 0.0 | 0.0 | 0.00 | 0.00 | 0.00 | 81 | 1009.2 |
| 20260504080513 | 13 | 0 | 0.0 | 0.0 | 0.00 | 0.00 | 0.00 | 81 | 1009.3 |
| 20260504050511 | 17 | 0 | 0.0 | 0.0 | 0.00 | 0.00 | 0.00 | 72 | 1009.4 |
| 20260504045510 | 17 | 0 | 0.0 | 0.0 | 0.00 | 0.00 | 0.00 | 72 | 1009.5 |
| 20260504045013 | 17 | 0 | 0.0 | 0.0 | 0.00 | 0.00 | 0.00 | 72 | 1009.5 |
| 20260504044529 | 18 | 0 | 0.0 | 0.0 | 0.00 | 0.00 | 0.00 | 71 | 1009.5 |
| 20260504044008 | 18 | 0 | 0.0 | 0.0 | 0.00 | 0.00 | 0.00 | 71 | 1009.4 |
| 20260504043511 | 18 | 0 | 0.0 | 0.0 | 0.00 | 0.00 | 0.00 | 71 | 1009.4 |
| 20260504043029 | 18 | 0 | 0.0 | 0.0 | 0.00 | 0.00 | 0.00 | 71 | 1009.4 |
| 20260504042509 | 18 | 0 | 0.0 | 0.0 | 0.00 | 0.00 | 0.00 | 70 | 1009.5 |
| 20260504042011 | 18 | 0 | 0.0 | 0.0 | 0.00 | 0.00 | 0.00 | 69 | 1009.4 |
| 20260504041541 | 19 | 0 | 0.0 | 0.0 | 0.00 | 0.00 | 0.00 | 69 | 1009.3 |
| 20260504041009 | 19 | 0 | 0.0 | 0.0 | 0.00 | 0.00 | 0.00 | 69 | 1009.3 |
| 20260504040510 | 19 | 0 | 0.0 | 0.0 | 0.00 | 0.00 | 0.00 | 68 | 1009.3 |
| 20260504040029 | 20 | 0 | 0.0 | 0.0 | 0.00 | 0.00 | 0.00 | 67 | 1009.2 |